Simultaneous Nadir Overpasses (SNOs) Predictions

Prediction of SNOs between METOP-B and NOAA-19 Satellite Orbit:

Table of predicted SNOs for the next 14.0 days since TLE Epoch: 11/21/2015
Index Date (METOP-B) Time (METOP-B) Lat,Lon (METOP-B) SZA (METOP-B ) Date (NOAA-19) Time (NOAA-19) Lat,Lon (NOAA-19) SZA (NOAA-19 ) Distance(km) Time Diff (sec)
1 11/27/2015 00:33:59 75.48, 170.16 96.43 11/27/2015 00:32:48 75.46, 170.17 96.41 1.52 71
2 11/27/2015 01:24:41 -75.47, -22.54 83.58 11/27/2015 01:23:49 -75.45, -22.56 83.60 1.45 52
3 11/27/2015 02:15:21 75.45, 144.75 96.42 11/27/2015 02:14:50 75.45, 144.71 96.41 1.36 31
4 11/27/2015 03:06:03 -75.44, -47.95 83.59 11/27/2015 03:05:51 -75.44, -48.02 83.60 1.96 12
5 11/27/2015 03:56:43 75.43, 119.34 96.41 11/27/2015 03:56:52 75.43, 119.26 96.40 2.33 9
6
